DELTA 1 DEB, 10834

Orbit data source: Space-Track

DELTA 1 DEB, 10834 is space debris in SSO originally from a launch on Thu, 29 Jul 1976 UTC launched from the Air Force Western Test Range (AFWTR). Debris objects in space refer to the collection of defunct objects orbiting the Earth. Examples of debris include non-operational satellites, rocket bodies, and fragments generated from explosions, collisions, or faulty payload assembly.

Loading next visibility...
Identifier
10834, 1976-077CE
Orbit
SSO
Country
Flag of USUS
Related business
Manufacturer
Unknown
Mission
Spacecraft
Bus & Motor
Unknown
Mass
Unknown
Launch date (UTC)
1976-07-29 (50 years ago)
Launch vehicle
Unknown
Launch site
Air Force Western Test Range (AFWTR)
Object type
Payload
Rocket body
Debris
Shape & HBR
Unknown shape, 0.2 m
Radar Cross Section
Medium (>0.1 m² and <1 m²)

Expand to show TLE details & history
Last TLE update: 2 days ago

TLE from 2 days ago
0 DELTA 1 DEB
1 10834U 76077CE  26171.27251730 -.00003067  00000-0 -29068-1 0  9991
2 10834 100.3674 103.2934 0131597 243.4636 274.0973 12.18551246205717
Epoch: 2026-06-20T06:32Z
TLE epoch observation values (Epoch: 2026-06-20T06:32:25.494Z)
Latitude
23.55079°
Longitude
-78.75089°
Altitude
1,595.295 km
Speed
7.076 km/s
True Right ascension
19h 11m 22s
True Declination
23° 26' 18"
Sunlit
Object was in full shadow at epoch
Visualization orbit readout
Latitude
Unknown
Longitude
Unknown
Altitude
Unknown
Speed
Unknown
Apparent Right ascension
Unknown
Apparent Declination
Unknown
Sunlit
N/A
Visualization observer readout
Local Sidereal Time
02:18:50
Azimuth
Unknown
Elevation
Unknown
Doppler factor
Unknown
Orbital elements
Apogee altitude
1,701.312 km
Perigee altitude
1,491.428 km
Semi-major axis
7,974.507 km
Eccentricity
0.01316
Inclination
100.3674°
RAAN
103.2934°
Arg. of periapsis
243.4636°
True anomaly
272.59157°
Mean anomaly
274.0973°
Eccentric anomaly
273.34459°
Mean motion
3.04781 °/min
Orbital period
118.12 mins
BSTAR
-0.029068
Loading maneuver chart data...
Computing Atmospheric mass density...
Loading historical data...
Loading historical data...
Loading historical data...
Loading historical data...
Loading historical data...
Loading historical data...
Loading historical data...

Documentation

Showing up to 5 results
|